Weather History for Gage, OK

Change the Weather History Date:

Saturday, March 29, 2014

  Actual Average Record
Temperature  
Mean Temperature 51 °F -  
Max Temperature 73 °F 61 °F 92 °F (1967)
Min Temperature 30 °F 37 °F 17 °F (1970)
Degree Days  
Heating Degree Days 14    
Growing Degree Days 1 (Base 50)    
Moisture  
Dew Point 26 °F    
Average Humidity 48    
Maximum Humidity 89    
Minimum Humidity 14    
Precipitation  
Precipitation 0.00 in - - ()
Sea Level Pressure  
Sea Level Pressure 30.20 in    
Wind  
Wind Speed 7 mph (SSW)    
Max Wind Speed 20 mph    
Max Gust Speed 28 mph    
Visibility 10 miles    
Events      
Averages and records for this station are not official NWS values.
T = Trace of Precipitation, MM = Missing Value Source: NWS Daily Summary

Daily Weather History Graph

Daily Weather History Graph

Search for Another Location

Airport:

Trip Planner

Search our weather history database for the weather conditions in past years. The results will help you decide how hot, cold, wet, or windy it might be!

Date:

Astronomy

Mar. 29, 2014 Rise Set
Actual Time 7:29 AM CDT 7:58 PM CDT
Civil Twilight 7:03 AM CDT 8:24 PM CDT
Nautical Twilight 6:33 AM CDT 8:54 PM CDT
Astronomical Twilight 6:02 AM CDT 9:25 PM CDT
Moon 6:37 AM CDT (3/29) 7:06 PM CDT (3/29)
Length of Visible Light 13h 20m
Length of Day
12h 29m
Waning Crescent, 2% of the Moon is Illuminated
Mar 29
Waning Crescent
Mar 30
New
Apr 7
First Quarter
Apr 15
Full
Apr 22
Last Quarter

Hourly Weather History & Observations

Time (CDT) Temp. Windchill Dew Point Humidity Pressure Visibility Wind Dir Wind Speed Gust Speed Precip Events Conditions
12:53 AM 37.0 °F 33.3 °F 30.9 °F 79% 30.17 in 10.0 mi WSW 4.6 mph - N/A   Clear
1:53 AM 35.1 °F 30.1 °F 30.9 °F 85% 30.19 in 10.0 mi WSW 5.8 mph - N/A   Clear
2:53 AM 35.1 °F 30.1 °F 30.0 °F 82% 30.19 in 10.0 mi WSW 5.8 mph - N/A   Clear
3:53 AM 33.1 °F 26.9 °F 28.9 °F 85% 30.22 in 10.0 mi WNW 6.9 mph - N/A   Clear
4:53 AM 30.9 °F 25.2 °F 28.0 °F 89% 30.23 in 10.0 mi SSW 5.8 mph - N/A   Clear
5:53 AM 30.9 °F 23.5 °F 28.0 °F 89% 30.26 in 10.0 mi WSW 8.1 mph - N/A   Clear
6:53 AM 30.0 °F 22.4 °F 27.0 °F 88% 30.29 in 10.0 mi WSW 8.1 mph - N/A   Clear
7:53 AM 30.0 °F 25.2 °F 27.0 °F 88% 30.31 in 10.0 mi West 4.6 mph - N/A   Clear
8:53 AM 37.0 °F - 30.0 °F 76% 30.32 in 10.0 mi Calm Calm - N/A   Unknown
9:53 AM 45.0 °F 43.5 °F 30.0 °F 56% 30.33 in 10.0 mi WNW 3.5 mph - N/A   Clear
10:53 AM 52.0 °F - 30.0 °F 43% 30.32 in 10.0 mi Calm Calm - N/A   Clear
11:53 AM 59.0 °F - 27.0 °F 29% 30.30 in 10.0 mi Variable 5.8 mph - N/A   Clear
12:53 PM 64.0 °F - 24.1 °F 22% 30.27 in 10.0 mi SW 6.9 mph - N/A   Clear
1:53 PM 68.0 °F - 18.0 °F 15% 30.23 in 10.0 mi South 8.1 mph - N/A   Clear
2:53 PM 69.1 °F - 18.0 °F 14% 30.20 in 10.0 mi South 8.1 mph 17.3 mph N/A   Clear
3:53 PM 70.0 °F - 18.0 °F 14% 30.16 in 10.0 mi South 12.7 mph 19.6 mph N/A   Clear
4:53 PM 72.0 °F - 19.9 °F 14% 30.12 in 10.0 mi South 19.6 mph 27.6 mph N/A   Clear
5:53 PM 71.1 °F - 19.9 °F 14% 30.10 in 10.0 mi SSW 13.8 mph - N/A   Clear
6:53 PM 70.0 °F - 23.0 °F 17% 30.09 in 10.0 mi South 16.1 mph 25.3 mph N/A   Clear
7:53 PM 64.9 °F - 21.9 °F 19% 30.09 in 10.0 mi South 13.8 mph - N/A   Clear
8:53 PM 57.9 °F - 23.0 °F 26% 30.10 in 10.0 mi South 11.5 mph - N/A   Clear
9:53 PM 55.9 °F - 25.0 °F 30% 30.10 in 10.0 mi SSE 13.8 mph - N/A   Clear
10:53 PM 55.0 °F - 27.0 °F 34% 30.10 in 10.0 mi SSE 15.0 mph - N/A   Clear
11:53 PM 55.9 °F - 28.0 °F 34% 30.07 in 10.0 mi South 17.3 mph 25.3 mph N/A   Clear